Date_and_time,latitude,longitude,wind_speed,RelWindDirFrom,WindDirFrom,air_pressure,air_temperature,relative_humidity,Temp,platform_speed_wrt_ground,air_pressure_at_mean_sea_level,platform_orientation
2018-04-17 23:50,50.630435,-96.9807583333333,12.7,13.7,17,991.37,4.4,47,3.47,0.0,1018.80,41.3
2018-04-18 00:00,50.630435,-96.98076,12.9,13.9,18,991.45,4.3,46,3.48,0.0,1018.89,360.0
2018-04-18 00:10,50.630435,-96.98076,12.6,13.8,19,991.52,4.7,42,3.47,0.0,1018.96,360.0
2018-04-18 00:20,NA,NA,11.9,13.1,21,991.67,4.6,43,3.46,NA,992.40,NA
2018-04-18 00:30,50.6304433333333,-96.9807816666667,9.9,10.8,25,991.84,4.1,46,3.47,0.0,1019.37,360.0
2018-04-18 00:40,50.6304366666667,-96.9807666666667,9.7,10.7,24,991.89,3.5,48,3.48,0.0,1019.44,360.0
2018-04-18 00:50,50.6304266666667,-96.9807616666667,9.0,10.2,27,992.02,3.1,51,3.48,0.0,1019.57,360.0
2018-04-18 01:00,50.6304333333333,-96.9807616666667,9.0,9.9,29,992.17,2.0,57,3.49,0.0,1019.81,228.3
2018-04-18 01:10,50.630445,-96.9807816666667,9.2,10.2,25,992.27,1.5,59,3.50,0.0,1019.95,228.3
2018-04-18 01:20,50.63041,-96.980735,9.1,10.1,29,992.35,1.5,57,3.51,0.0,1020.00,228.3
2018-04-18 01:30,50.6304216666667,-96.9807366666667,9.0,9.7,29,992.40,1.5,56,3.52,0.0,1020.09,228.3
2018-04-18 01:40,50.6304283333333,-96.9807433333333,8.2,9.1,31,992.53,1.6,53,3.52,0.0,1020.21,228.3
2018-04-18 01:50,50.6304333333333,-96.98075,8.0,8.8,33,992.67,1.9,52,3.53,0.0,1020.35,228.3
2018-04-18 02:00,50.6304333333333,-96.980755,7.8,8.2,37,992.81,1.8,50,3.53,0.0,1020.48,142.0
2018-04-18 02:10,50.6304283333333,-96.98076,7.4,8.2,41,992.91,1.7,50,3.53,0.0,1020.58,142.0
2018-04-18 02:20,50.6304616666667,-96.980795,6.9,7.9,38,993.00,1.3,52,3.55,0.0,1020.74,142.0
2018-04-18 02:30,50.6304383333333,-96.9807733333333,6.4,7.7,34,993.05,1.9,46,3.55,0.0,1020.79,142.0
2018-04-18 02:40,50.6304383333333,-96.9807666666667,6.3,7.2,26,993.09,2.0,47,3.55,0.0,1020.84,142.0
2018-04-18 02:50,50.63044,-96.9807633333333,6.9,8.1,29,993.13,1.9,47,3.56,0.0,1020.94,142.0
2018-04-18 03:00,50.6304283333333,-96.9807733333333,7.0,8.6,24,993.10,2.3,44,3.56,0.0,1020.92,216.6
2018-04-18 03:10,50.63043,-96.9807633333333,7.3,8.0,17,993.02,1.7,47,3.56,0.0,1020.86,216.6
2018-04-18 03:20,50.6304333333333,-96.9807616666667,7.1,8.1,22,992.97,1.9,46,3.56,0.0,1020.80,216.6
2018-04-18 03:30,50.6304316666667,-96.9807583333333,7.5,8.9,33,992.88,1.2,50,3.56,0.0,1020.74,216.6
2018-04-18 03:40,50.63043,-96.9807566666667,7.5,8.4,34,992.86,0.3,56,3.53,0.0,1020.75,216.6
2018-04-18 03:50,50.630435,-96.980745,5.8,6.8,43,992.90,-0.3,57,3.53,0.0,1020.82,216.6
2018-04-18 04:00,50.6304466666667,-96.9807733333333,2.8,4.1,31,992.95,-0.2,57,3.54,0.0,1020.87,327.5
2018-04-18 04:10,50.630435,-96.9807566666667,3.2,5.8,45,992.90,-0.0,53,3.56,0.0,1020.84,327.5
2018-04-18 04:20,50.6304316666667,-96.9807533333333,3.8,6.2,52,992.79,0.3,51,3.56,0.0,1020.68,327.5
2018-04-18 04:30,50.6304316666667,-96.980755,7.6,9.7,76,992.60,0.5,51,3.55,0.0,1020.47,327.5
2018-04-18 04:40,50.63043,-96.9807566666667,8.9,9.9,76,992.50,-0.2,57,3.54,0.0,1020.41,327.5
2018-04-18 04:50,50.63043,-96.9807566666667,9.6,10.6,77,992.45,-0.3,56,3.54,0.0,1020.33,327.5
2018-04-18 05:00,50.6304083333333,-96.98077,9.5,10.5,77,992.39,0.3,52,3.53,0.0,1020.28,360.0
2018-04-18 05:10,50.63043,-96.980765,7.9,9.1,71,992.37,0.5,52,3.54,0.0,1020.24,360.0
2018-04-18 05:20,50.630435,-96.9807583333333,5.1,6.8,70,992.42,0.5,51,3.54,0.0,1020.32,360.0
2018-04-18 05:30,50.630435,-96.9807583333333,1.8,3.4,74,992.46,0.6,51,3.54,0.0,1020.41,360.0
2018-04-18 05:40,50.6304333333333,-96.9807583333333,1.9,4.3,59,992.53,0.4,54,3.54,0.0,1020.52,360.0
2018-04-18 05:50,50.630435,-96.9807566666667,6.1,9.8,80,992.54,0.1,55,3.54,0.0,1020.54,360.0
2018-04-18 06:00,50.630435,-96.9807583333333,9.5,10.6,77,992.58,0.4,53,3.54,0.0,1020.56,36.6
2018-04-18 06:10,50.630435,-96.9807583333333,9.9,10.7,80,992.67,0.4,53,3.54,0.0,1020.63,36.6
2018-04-18 06:20,50.6304366666667,-96.9807583333333,9.6,10.6,80,992.77,0.2,53,3.54,0.0,1020.73,36.6
2018-04-18 06:30,50.6304433333333,-96.9807583333333,7.7,9.1,83,992.87,0.1,53,3.53,0.0,1020.88,36.6
2018-04-18 06:40,50.630445,-96.9807666666667,6.5,7.9,90,993.02,0.1,53,3.53,0.0,1021.04,36.6
2018-04-18 06:50,50.6304466666667,-96.9807566666667,5.8,8.8,93,993.11,0.0,55,3.53,0.0,1021.10,36.6
2018-04-18 07:00,50.630445,-96.9807583333333,4.8,5.9,95,993.18,-0.2,56,3.53,0.0,1021.18,125.3
2018-04-18 07:10,50.6304433333333,-96.9807583333333,4.8,6.2,95,993.23,-0.4,56,3.53,0.0,1021.24,125.3
2018-04-18 07:20,50.6304416666667,-96.9807566666667,6.4,8.5,91,993.26,-0.6,57,3.53,0.0,1021.28,125.3
2018-04-18 07:30,50.63044,-96.9807566666667,7.1,8.4,89,993.27,-0.8,56,3.52,0.0,1021.31,125.3
2018-04-18 07:40,50.63042,-96.980745,7.6,9.8,86,993.32,-0.9,56,3.52,0.0,1021.38,125.3
2018-04-18 07:50,50.630435,-96.98075,9.2,10.6,85,993.32,-1.0,56,3.52,0.0,1021.38,125.3
2018-04-18 08:00,50.6304333333333,-96.980755,8.2,9.4,87,993.37,-1.2,57,3.51,0.0,1021.44,360.0
2018-04-18 08:10,50.6304383333333,-96.9807783333333,8.2,9.5,87,993.38,-1.3,57,3.51,0.0,1021.46,360.0
2018-04-18 08:20,50.63043,-96.9807583333333,8.3,9.6,89,993.45,-1.3,56,3.50,0.0,1021.54,360.0
2018-04-18 08:30,50.63043,-96.98076,8.9,10.0,88,993.50,-1.3,56,3.50,0.0,1021.58,360.0
2018-04-18 08:40,50.63043,-96.9807566666667,8.3,9.8,87,993.54,-1.5,57,3.50,0.0,1021.64,360.0
2018-04-18 08:50,50.6304316666667,-96.9807566666667,8.1,9.2,87,993.53,-1.8,58,3.50,0.0,1021.66,360.0
2018-04-18 09:00,50.6304316666667,-96.9807566666667,8.9,9.6,85,993.52,-2.1,59,3.49,0.0,1021.67,142.0
2018-04-18 09:10,50.6304316666667,-96.9807566666667,8.5,10.1,87,993.63,-2.0,57,3.48,0.0,1021.79,142.0
2018-04-18 09:20,50.6304333333333,-96.9807566666667,7.1,8.9,87,993.76,-1.9,57,3.48,0.0,1021.93,142.0
2018-04-18 09:30,50.6304333333333,-96.9807566666667,5.2,6.5,85,993.93,-1.9,57,3.48,0.0,1022.11,142.0
2018-04-18 09:40,50.630435,-96.980755,4.0,5.2,84,994.08,-1.9,55,3.47,0.0,1022.27,142.0
2018-04-18 09:50,50.630435,-96.9807566666667,3.9,5.0,86,994.20,-1.7,53,3.46,0.0,1022.39,142.0
2018-04-18 10:00,50.630435,-96.9807566666667,4.1,5.1,96,994.29,-1.5,52,3.46,0.0,1022.47,142.0
2018-04-18 10:10,50.630435,-96.9807566666667,5.7,6.8,97,994.34,-1.6,52,3.46,0.0,1022.54,142.0
2018-04-18 10:20,50.630435,-96.9807566666667,6.5,7.3,97,994.35,-1.9,55,3.45,0.0,1022.56,142.0
2018-04-18 10:30,50.630435,-96.9807566666667,7.4,8.8,94,994.35,-2.5,58,3.44,0.0,1022.61,142.0
2018-04-18 10:40,50.630435,-96.9807566666667,6.7,8.0,92,994.35,-2.8,59,3.42,0.0,1022.64,142.0
2018-04-18 10:50,50.630435,-96.980755,4.7,6.9,66,994.46,-2.8,59,3.42,0.0,1022.76,142.0
2018-04-18 11:00,50.630435,-96.980755,4.8,6.8,25,994.51,-3.1,58,3.42,0.0,1022.83,38.0
2018-04-18 11:10,50.6304333333333,-96.980755,7.9,10.4,68,994.56,-1.9,48,3.42,0.0,1022.81,38.0
2018-04-18 11:20,50.6304333333333,-96.9807566666667,9.1,11.2,72,994.56,-1.5,47,3.42,0.0,1022.80,38.0
2018-04-18 11:30,50.630435,-96.9807566666667,7.0,9.3,40,994.65,-2.1,52,3.41,0.0,1022.92,38.0
2018-04-18 11:40,50.6304016666667,-96.9807633333333,5.5,6.7,22,994.72,-2.7,56,3.40,0.0,1023.01,38.0
2018-04-18 11:50,50.6303916666667,-96.980765,5.5,6.9,24,994.89,-2.1,50,3.40,0.0,1023.14,38.0
2018-04-18 12:00,50.6304266666667,-96.9807583333333,5.6,6.7,32,995.08,-1.8,49,3.39,0.0,1023.33,360.0
2018-04-18 12:10,50.630425,-96.9807533333333,5.6,6.6,26,995.23,-2.0,50,3.38,0.0,1023.51,360.0
2018-04-18 12:20,50.6304283333333,-96.980755,5.4,6.7,16,995.32,-1.9,48,3.38,0.0,1023.62,360.0
2018-04-18 12:30,50.63043,-96.980755,4.5,5.8,17,995.45,-1.3,45,3.38,0.0,1023.75,360.0
2018-04-18 12:40,50.6304316666667,-96.980755,3.6,5.0,6,995.69,-1.0,44,3.38,0.0,1023.98,360.0
2018-04-18 12:50,50.6304333333333,-96.9807533333333,2.9,3.7,5,995.90,-0.7,42,3.38,0.0,1024.19,360.0
2018-04-18 13:00,50.6304333333333,-96.980755,3.7,4.3,15,995.94,-0.9,43,3.38,0.0,1024.18,142.0
2018-04-18 13:10,50.6304333333333,-96.980755,4.0,5.0,19,996.01,-0.9,44,3.36,0.0,1024.23,142.0
2018-04-18 13:20,50.6304333333333,-96.980755,4.7,5.3,20,996.13,-1.6,52,3.34,0.0,1024.42,142.0
2018-04-18 13:30,50.6304333333333,-96.980755,3.5,4.1,9,996.27,-1.4,46,3.33,0.0,1024.59,142.0
2018-04-18 13:40,50.6304333333333,-96.980755,2.1,3.3,355,996.46,-0.8,41,3.33,0.0,1024.72,142.0
2018-04-18 13:50,50.6304333333333,-96.980755,0.7,2.2,231,996.77,-0.4,37,3.32,0.0,1025.00,142.0
2018-04-18 14:00,50.6304333333333,-96.9807533333333,2.3,3.4,188,996.94,0.0,35,3.31,0.0,1025.16,131.7
2018-04-18 14:10,50.630435,-96.9807533333333,3.3,7.3,196,997.03,0.5,34,3.31,0.0,1025.22,131.7
2018-04-18 14:20,50.630435,-96.9807533333333,5.5,7.7,188,997.11,1.4,32,3.30,0.0,1025.22,131.7
2018-04-18 14:30,50.630435,-96.9807533333333,4.9,8.2,163,997.05,1.9,34,3.29,0.0,1025.12,131.7
2018-04-18 14:40,50.630445,-96.9807666666667,5.8,7.1,131,997.06,2.0,40,3.29,0.0,1025.11,131.7
2018-04-18 14:50,50.6304433333333,-96.98076,6.1,6.5,122,996.98,1.8,45,3.29,0.0,1025.05,131.7
2018-04-18 15:00,50.6304283333333,-96.9807533333333,6.0,7.3,100,996.86,2.5,44,3.28,0.0,1024.89,90.0
2018-04-18 15:10,50.63043,-96.9807616666667,7.2,8.3,83,996.71,2.0,51,3.27,0.0,1024.80,90.0
2018-04-18 15:20,50.6304316666667,-96.9807633333333,7.0,8.3,81,996.74,1.3,56,3.27,0.0,1024.86,90.0
2018-04-18 15:30,50.6304316666667,-96.9807633333333,6.4,7.9,76,996.78,1.1,59,3.28,0.0,1024.87,90.0
2018-04-18 15:40,50.630435,-96.980765,6.7,7.7,84,996.86,1.5,58,3.28,0.0,1024.91,90.0
2018-04-18 15:50,50.630435,-96.9808033333333,7.3,8.0,84,996.84,1.8,57,3.28,0.0,1024.86,90.0
2018-04-18 16:00,50.6304366666667,-96.980765,7.7,9.2,80,996.84,1.8,58,3.28,0.0,1024.84,311.7
2018-04-18 16:10,50.6304383333333,-96.9807633333333,7.0,8.8,77,996.96,1.6,59,3.28,0.0,1024.93,311.7
2018-04-18 16:20,50.6304383333333,-96.9807633333333,6.5,8.1,75,997.00,1.7,60,3.28,0.0,1024.94,311.7
2018-04-18 16:30,50.6304383333333,-96.980765,5.4,7.3,76,997.07,1.9,61,3.28,0.0,1024.99,311.7
2018-04-18 16:40,50.6304216666667,-96.9807683333333,5.4,6.3,75,997.10,1.7,62,3.28,0.0,1025.04,311.7
2018-04-18 16:50,50.6304316666667,-96.9807583333333,5.4,6.7,74,997.16,1.7,62,3.28,0.0,1025.07,311.7
2018-04-18 17:00,50.6304366666667,-96.980755,5.6,7.3,68,997.15,1.5,65,3.27,0.0,1025.09,311.7
2018-04-18 17:10,50.6304366666667,-96.98075,4.7,5.5,56,997.12,1.2,66,3.26,0.0,1025.11,311.7
2018-04-18 17:20,50.6304366666667,-96.980755,3.9,5.0,41,997.21,1.2,68,3.25,0.0,1025.21,311.7
2018-04-18 17:30,50.630435,-96.980755,4.5,5.2,30,997.19,1.2,67,3.23,0.0,1025.18,311.7
2018-04-18 17:40,50.6304333333333,-96.9807566666667,4.6,5.6,28,997.22,1.2,68,3.23,0.0,1025.19,311.7
2018-04-18 17:50,50.6304333333333,-96.9807583333333,4.9,6.1,29,997.17,1.2,70,3.23,0.0,1025.13,311.7
2018-04-18 18:00,50.6304333333333,-96.98076,4.7,5.6,25,997.07,1.3,70,3.22,0.0,1025.05,347.4
2018-04-18 18:10,50.6304316666667,-96.98076,4.5,5.4,30,997.01,1.3,71,3.22,0.0,1024.98,347.4
2018-04-18 18:20,50.6304333333333,-96.9807616666667,5.0,5.5,29,996.94,1.3,71,3.22,0.0,1024.90,347.4
2018-04-18 18:30,50.6304333333333,-96.9807633333333,5.8,6.9,31,996.88,1.4,70,3.23,0.0,1024.83,347.4
2018-04-18 18:40,50.6304333333333,-96.9807633333333,5.5,6.5,30,996.83,1.3,70,3.24,0.0,1024.78,347.4
2018-04-18 18:50,50.6304333333333,-96.980765,5.2,6.2,25,996.74,1.5,65,3.26,0.0,1024.70,347.4
2018-04-18 19:00,50.6304333333333,-96.9807633333333,4.9,5.3,27,996.71,1.9,59,3.27,0.0,1024.66,142.0
2018-04-18 19:10,50.6304333333333,-96.980765,4.3,5.1,28,996.61,2.3,57,3.27,0.0,1024.53,142.0
2018-04-18 19:20,50.6304333333333,-96.980765,5.0,5.9,33,996.50,2.6,53,3.26,0.0,1024.41,142.0
2018-04-18 19:30,50.6304333333333,-96.9807633333333,5.0,5.6,39,996.49,2.6,53,3.27,0.0,1024.39,142.0
2018-04-18 19:40,50.6304333333333,-96.9807633333333,5.0,5.6,43,996.46,2.8,47,3.26,0.0,1024.35,142.0
2018-04-18 19:50,50.6304333333333,-96.9807633333333,5.3,5.8,45,996.46,3.3,43,3.27,0.0,1024.33,142.0
2018-04-18 20:00,50.6304333333333,-96.9807633333333,5.2,5.7,41,996.43,3.4,44,3.27,0.0,1024.29,228.3
2018-04-18 20:10,50.6304333333333,-96.9807616666667,4.6,5.4,44,996.45,3.3,53,3.29,0.0,1024.32,228.3
2018-04-18 20:20,50.6304333333333,-96.9807616666667,5.2,5.7,48,996.43,3.6,40,3.30,0.0,1024.28,228.3
2018-04-18 20:30,50.6304333333333,-96.9807616666667,4.9,5.5,44,996.46,3.9,44,3.31,0.0,1024.29,228.3
2018-04-18 20:40,50.6304333333333,-96.9807633333333,5.2,6.0,42,996.44,3.8,40,3.31,0.0,1024.27,228.3
2018-04-18 20:50,50.630445,-96.9807766666667,5.3,6.2,42,996.43,4.0,45,3.30,0.0,1024.24,228.3
2018-04-18 21:00,50.6304416666667,-96.9807683333333,6.2,7.0,44,996.48,4.2,37,3.30,0.0,1024.25,318.7
2018-04-18 21:10,50.6304383333333,-96.9807516666667,5.6,6.5,42,996.52,4.4,36,3.31,0.0,1024.26,318.7
2018-04-18 21:20,50.63044,-96.9807516666667,5.3,6.0,44,996.48,4.3,38,3.32,0.0,1024.23,318.7
2018-04-18 21:30,50.6304383333333,-96.98075,5.1,5.7,43,996.48,4.2,42,3.33,0.0,1024.23,318.7
2018-04-18 21:40,50.6304383333333,-96.9807516666667,4.8,5.3,37,996.50,3.8,48,3.33,0.0,1024.25,318.7
2018-04-18 21:50,50.6304366666667,-96.9807533333333,4.7,5.3,36,996.50,3.6,51,3.34,0.0,1024.25,318.7
2018-04-18 22:00,50.6304366666667,-96.9807566666667,4.3,4.9,40,996.52,3.3,56,3.35,0.0,1024.29,48.3
2018-04-18 22:10,50.6304366666667,-96.9807566666667,4.2,5.1,32,996.54,3.3,56,3.35,0.0,1024.29,48.3
2018-04-18 22:20,50.6304366666667,-96.9807566666667,4.5,5.0,31,996.55,3.5,52,3.36,0.0,1024.28,48.3
2018-04-18 22:30,50.6304366666667,-96.980755,4.8,5.3,30,996.54,3.6,51,3.36,0.0,1024.27,48.3
2018-04-18 22:40,50.6304366666667,-96.980755,5.2,5.6,25,996.54,3.5,50,3.37,0.0,1024.27,48.3
2018-04-18 22:50,50.630435,-96.9807616666667,6.0,6.7,31,996.53,3.8,43,3.37,0.0,1024.23,48.3
2018-04-18 23:00,50.6304366666667,-96.9807616666667,6.4,7.0,41,996.54,4.2,38,3.38,0.0,1024.21,48.3
2018-04-18 23:10,50.6304333333333,-96.98076,5.9,6.4,41,996.59,4.2,41,3.38,0.0,1024.26,48.3
2018-04-18 23:20,50.6304516666667,-96.98076,5.7,6.4,49,996.57,4.1,42,3.38,0.0,1024.26,48.3
